Location: Dresden
(51.0300°N, 13.7800°E)
Time: 17:13:49
(UTC+01:00)

NNS O-2 - Visible Passes

Search period start: 18 January 2026 00:00
Search period end: 28 January 2026 00:00
Orbit: 1016 x 1077 km, 90.1° (Epoch: 17 January)

Date Brightness Start Highest point End Pass type
(mag) Time Alt. Az. Time Alt. Az. Time Alt. Az.
18 Jan 11.6 03:39:53 10° E 03:43:35 16° ENE 03:47:19 10° NNE visible
18 Jan 9.2 05:22:01 10° SSE 05:28:24 75° E 05:34:54 10° N visible
18 Jan 10.1 07:10:05 10° SW 07:15:04 23° WNW 07:20:08 10° NNW visible
18 Jan 9.9 18:08:04 10° N 18:14:30 56° W 18:20:58 10° SSW visible
18 Jan 11.9 19:56:36 10° NW 19:59:00 12° WNW 20:01:24 10° W visible
19 Jan 10.6 04:23:38 10° SE 04:29:14 33° ENE 04:34:56 10° NNE visible
19 Jan 9.2 06:08:40 10° SSW 06:14:54 53° W 06:21:16 10° N visible
19 Jan 9.2 17:08:24 10° N 17:15:02 68° E 17:21:40 10° S visible
19 Jan 11.1 18:55:03 10° NNW 19:00:27 28° WNW 19:05:53 10° SW visible
20 Jan 11.7 03:27:10 10° E 03:30:34 15° ENE 03:33:59 10° NNE visible
20 Jan 9.3 05:08:56 10° SSE 05:15:17 70° E 05:21:46 10° N visible
20 Jan 10.0 06:56:40 10° SW 07:01:51 25° WNW 07:07:07 10° NNW visible
20 Jan 9.8 17:54:54 10° N 18:01:25 61° W 18:07:57 10° SSW visible
20 Jan 11.9 19:43:06 10° NW 19:46:00 13° WNW 19:48:54 10° W visible
21 Jan 10.7 04:10:40 10° SE 04:16:10 31° ENE 04:21:44 10° NNE visible
21 Jan 9.1 05:55:27 10° SSW 06:01:45 57° W 06:08:11 10° N visible
21 Jan 11.0 18:41:50 10° NNW 18:47:24 30° WNW 18:53:01 10° SW visible
22 Jan 11.7 03:14:30 10° E 03:17:33 14° ENE 03:20:37 10° NNE visible
22 Jan 9.5 04:55:51 10° SSE 05:02:11 65° E 05:08:38 10° N visible
22 Jan 9.9 06:43:17 10° SW 06:48:39 27° WNW 06:54:07 10° NNW visible
22 Jan 9.7 17:41:45 10° N 17:48:19 65° W 17:54:55 10° SSW visible
22 Jan 11.8 19:29:40 10° NNW 19:33:00 14° WNW 19:36:20 10° W visible
23 Jan 10.8 03:57:45 10° SE 04:03:07 29° ENE 04:08:33 10° NNE visible
23 Jan 9.1 05:42:15 10° SSW 05:48:36 62° W 05:55:06 10° N visible
23 Jan 10.9 18:28:37 10° NNW 18:34:22 32° WNW 18:40:07 10° SW visible
24 Jan 11.8 03:01:54 10° E 03:04:33 13° ENE 03:07:12 10° NE visible
24 Jan 9.6 04:42:47 10° SSE 04:49:04 60° E 04:55:30 10° N visible
24 Jan 9.8 06:29:55 10° SW 06:35:27 30° WNW 06:41:05 10° NNW visible
24 Jan 9.6 17:28:36 10° N 17:35:14 71° W 17:41:53 10° SSW visible
24 Jan 11.8 19:16:18 10° NNW 19:19:59 16° WNW 19:23:42 10° W visible
25 Jan 10.9 03:44:50 10° SE 03:50:04 27° ENE 03:55:21 10° NNE visible
25 Jan 9.0 05:29:03 10° S 05:35:27 67° W 05:42:01 10° N visible
25 Jan 10.8 18:15:26 10° NNW 18:21:19 34° WNW 18:27:12 10° SW visible
26 Jan 11.9 02:49:24 10° ENE 02:51:32 12° ENE 02:53:41 10° NE visible
26 Jan 9.7 04:29:44 10° SSE 04:35:59 55° E 04:42:22 10° N visible
26 Jan 9.7 06:16:35 10° SW 06:22:15 32° WNW 06:28:04 10° NNW visible
26 Jan 9.5 17:15:28 10° N 17:22:09 76° W 17:28:49 10° SSW visible
26 Jan 11.8 19:02:58 10° NNW 19:06:59 17° WNW 19:11:01 10° W visible
27 Jan 11.0 03:31:56 10° ESE 03:37:00 25° ENE 03:42:09 10° NNE visible
27 Jan 9.0 05:15:52 10° S 05:22:19 73° W 05:28:55 10° N visible
27 Jan 10.5 07:05:56 10° WSW 07:09:32 15° WNW 07:13:11 10° NNW visible
27 Jan 10.7 18:02:15 10° N 18:08:15 37° WNW 18:14:17 10° SW visible
